Updated 10-Jul-2019, Data Version 1.0, RHmax=100,Scatmax=2500 
Year,Month,Day,num_hourly_points,Temp_degC,Pressure,%RH,Back_Scat_Red,Back_Scat_Green,Back_Scat_Blue,Total_Scat_Red,Total_Scat_Green,Total_Scat_Blue
2013, 12, 11, 07,   27.0,  97.90,     33,  249.8,  145.5,  118.9,1052.2,1272.8,  965.7
2013, 12, 12, 09,   26.7,  97.89,     36,  231.7,  128.4,   99.8, 837.5, 908.1,  650.6
2013, 12, 13, 08,   26.4,  97.84,     29,  166.1,   86.0,   66.1, 583.9, 590.5,  304.5
2013, 12, 14, 16,   22.7,  97.98,     60,   81.7,   63.9,   72.3, 720.7,1159.7,  865.9
2013, 12, 15, 24,   19.1,  98.18,     67,  140.0,  130.1,  149.4,1114.0,1789.5, 1231.3
2013, 12, 16, 24,   19.8,  98.24,     64,  106.3,  103.1,  122.3, 946.4,1555.9, 1130.4
2013, 12, 17, 24,   19.0,  98.15,     67,  127.5,  123.0,  137.1, 888.7,1576.3,  985.0
2013, 12, 18, 10,   14.4,  98.14,     73,  125.4,  122.9,  134.4, 836.8,1544.6,  913.6
2013, 12, 19, 10,   22.6,  97.96,     65,   84.3,   80.8,   84.9, 959.3,1950.5,  843.5
2013, 12, 20, 24,   19.9,  98.16,     70,  137.0,  130.0,  136.6,1026.2,2078.8,  912.5
2013, 12, 21, 24,   20.2,  98.29,     69,  113.2,  106.8,  111.0, 986.2,1950.6,  877.1
2013, 12, 22, 24,   20.0,  98.40,     73,   85.8,   81.9,   87.5,1011.9,2019.2,  979.8
2013, 12, 23, 24,   16.2,  98.67,     80,  146.8,  135.2,  142.3,1110.7,2058.0, 1111.4
2013, 12, 24, 24,   16.9,  98.80,     83,   86.1,   79.3,   82.9,1034.9,1966.5, 1036.8
2013, 12, 25, 24,   17.2,  98.70,     61,   58.8,   56.2,   60.2, 867.5,1647.4,  897.1
2013, 12, 26, 24,   17.8,  98.59,     58,   46.2,   44.9,   48.6, 226.5, 370.9,  496.1
2013, 12, 27, 24,   17.3,  98.48,     63,   61.2,   59.1,   63.7, 334.0, 576.4,  728.7
2013, 12, 28, 24,   19.1,  98.43,     75,   43.3,   42.6,   45.7, 243.7, 416.2,  532.3
2013, 12, 29, 24,   17.4,  98.50,     65,   63.7,   62.1,   67.0, 377.6, 647.3,  808.9
2013, 12, 30, 24,   17.3,  98.54,     66,   58.9,   56.2,   60.7, 358.0, 624.8,  759.4
2013, 12, 31, 24,   15.3,  98.66,     90,   61.3,   59.2,   64.0, 479.5, 820.4,  915.0
2014, 01, 01, 24,   18.0,  98.65,     85,   49.0,   48.2,   52.0, 367.0, 620.3,  697.4
2014, 01, 02, 24,   15.7,  98.67,     69,   79.7,   77.3,   83.0, 589.1,1041.4,  843.4
2014, 01, 03, 24,   15.1,  98.58,     75,   56.0,   54.5,   55.1, 361.2, 619.2,  675.5
2014, 01, 04, 24,   17.1,  98.36,     75,  112.3,  107.9,  112.8, 789.5,1434.6,  988.2
2014, 01, 05, 24,   18.5,  98.12,     69,   95.9,   93.4,   96.3, 653.2,1112.7,  874.4
2014, 01, 06, 24,   14.9,  98.38,     71,  131.4,  122.4,  123.7, 899.9,1422.6, 1139.3
2014, 01, 07, 24,   13.6,  98.53,     71,  187.1,  170.0,  177.6,1159.7,1978.9, 1373.5
2014, 01, 08, 24,   15.9,  98.54,     64,  131.1,  122.8,  131.2, 912.3,1646.7, 1179.6
2014, 01, 09, 24,   13.6,  98.42,     69,  122.8,  117.9,  127.1, 802.8,1275.7, 1059.4
2014, 01, 10, 24,   17.4,  98.31,     65,   89.6,   86.2,   92.3, 612.7,1083.4,  892.2
2014, 01, 11, 24,   18.6,  98.41,     74,   67.1,   64.9,   68.9, 526.7, 906.1,  814.3
2014, 01, 12, 24,   16.5,  98.76,     70,   67.9,   66.1,   69.9, 547.5, 916.5,  763.3
2014, 01, 13, 24,   14.2,  98.76,     71,   85.6,   79.8,   81.7, 731.7,1179.0, 1040.1
2014, 01, 14, 24,   15.6,  98.54,     77,   63.3,   58.1,   59.0, 758.2,1123.8,  888.8
2014, 01, 15, 24,   15.5,  98.60,     80,   46.2,   40.8,   41.5, 711.4, 884.2,  709.7
2014, 01, 16, 24,   15.9,  98.66,     73,   83.1,   74.6,   76.8, 755.3,1056.2,  899.3
2014, 01, 17, 24,   15.2,  98.52,     67,  120.9,  111.2,  115.3, 938.8,1503.4, 1065.2
2014, 01, 18, 24,   17.0,  98.53,     66,   54.8,   52.2,   53.5, 553.1, 752.2,  727.4
2014, 01, 19, 24,   16.6,  98.96,     68,   56.4,   55.8,   58.4, 616.2, 892.8,  854.6
2014, 01, 20, 24,   17.1,  98.87,     66,   75.6,   73.3,   77.0, 696.9,1074.9,  925.6
2014, 01, 21, 24,   17.7,  98.81,     74,   66.5,   64.6,   67.7, 429.5, 709.5,  697.9
2014, 01, 22, 24,   16.2,  98.71,     63,   75.8,   74.9,   80.0, 639.6,1063.3, 1143.4
2014, 01, 23, 24,   18.6,  98.68,     68,   59.3,   57.0,   59.6, 403.6, 664.1,  747.2
2014, 01, 24, 24,   19.0,  98.53,     70,   43.6,   43.6,   46.2, 357.2, 579.8,  671.7
2014, 01, 25, 24,   16.1,  98.60,     69,   89.6,   83.6,   86.1, 670.5,1035.8, 1024.5
2014, 01, 26, 24,   15.5,  98.66,     83,   72.6,   67.6,   70.0, 606.4, 932.7,  796.6
2014, 01, 27, 24,   17.9,  98.60,     71,   73.6,   69.5,   73.7, 560.2, 954.9,  861.1
2014, 01, 28, 24,   19.4,  98.40,     74,   38.5,   37.7,   40.5, 303.0, 528.9,  622.4
2014, 01, 29, 15,   16.2,  98.56,     68,   98.0,   92.5,   97.9, 797.4,1373.5, 1053.7
2014, 01, 30, 14,   16.7,  98.66,     91,   42.4,   41.4,   43.7, 460.2, 752.3,  798.4
2014, 01, 31, 12,   14.6,  98.73,     94,   33.6,   32.3,   33.4, 519.8, 865.1,  962.6
2014, 05, 15, 07,   34.6,  97.00,     31,   20.8,   24.4,   21.5,  44.3,  60.3,   67.4
2014, 05, 16, 24,   35.4,  97.11,     32,   22.7,   26.1,   23.4,  53.0,  74.8,   87.0
2014, 05, 17, 24,   37.0,  97.34,     30,   26.5,   29.2,   26.8,  66.0,  97.2,  118.8
2014, 05, 18, 24,   36.4,  97.37,     29,   26.4,   28.4,   25.5,  61.4,  82.5,   95.1
2014, 05, 19, 24,   36.6,  97.38,     24,   22.2,   22.8,   20.2,  50.3,  66.5,   86.3
2014, 05, 20, 18,   37.4,  97.28,     22,   23.5,   23.8,   21.3,  56.4,  76.3,  100.6
2014, 05, 21, 06,   35.8,  96.92,     22,   56.5,   38.4,   28.1, 139.7, 127.4,  125.3
2014, 05, 22, 24,   37.3,  96.83,     21,   78.5,   48.6,   34.5, 156.4, 144.8,  147.1
2014, 05, 23, 24,   40.1,  96.81,     18,   89.5,   53.6,   39.2, 165.2, 156.4,  165.0
2014, 05, 24, 24,   40.7,  97.14,     23,  102.7,   58.2,   41.4, 183.4, 155.4,  144.9
2014, 05, 25, 24,   36.4,  97.44,     38,   44.1,   32.8,   26.6,  88.7,  97.0,  105.8
2014, 05, 26, 24,   36.3,  97.55,     49,   21.6,   21.7,   19.6,  57.2,  86.5,  109.9
2014, 05, 27, 24,   37.3,  97.40,     46,   19.0,   19.5,   17.4,  45.7,  67.2,   81.5
2014, 05, 28, 24,   38.4,  97.11,     44,   25.1,   24.4,   22.8,  71.7,  98.5,  116.0
2014, 05, 29, 24,   41.4,  96.82,     27,   28.2,   26.1,   24.6,  76.7, 105.9,  125.2
2014, 05, 30, 24,   41.6,  96.78,     42,   30.2,   27.4,   25.8,  86.6, 121.8,  147.3
2014, 05, 31, 24,   37.5,  96.88,     46,   27.3,   25.1,   22.7,  78.4, 108.4,  125.3
2014, 06, 01, 19,   39.7,  97.06,     39,   24.3,   23.0,   20.7,  66.4,  95.8,  111.1
2014, 06, 02, 24,   40.2,  97.13,     38,   29.3,   27.3,   25.3,  87.5, 136.1,  168.3
2014, 06, 03, 17,   40.5,  96.90,     33,   32.0,   29.4,   27.4,  95.8, 147.9,  184.1
2014, 06, 19, 06,   39.7,  96.18,     57,   48.0,   41.9,   40.4, 143.1, 222.6,  285.5
2014, 06, 20, 24,   38.9,  96.10,     51,   33.1,   28.6,   26.8,  72.7,  99.5,  117.6
2014, 06, 21, 24,   39.0,  96.24,     46,   20.5,   17.4,   17.7,  44.7,  54.1,   58.3
2014, 06, 22, 24,   38.1,  96.47,     49,   23.6,   20.2,   20.5,  61.0,  78.2,   88.2
2014, 06, 23, 24,   35.8,  96.52,     55,   25.8,   22.4,   22.3,  72.0,  92.5,  103.2
2014, 06, 24, 24,   37.0,  96.40,     49,   19.8,   18.0,   17.3,  46.5,  56.7,   59.4
2014, 06, 25, 24,   37.8,  96.54,     43,   24.9,   23.5,   22.0,  62.1,  82.4,   94.9
2014, 06, 26, 24,   39.2,  96.80,     41,   22.0,   20.5,   18.8,  50.3,  62.4,   67.9
2014, 06, 27, 24,   40.0,  96.96,     41,   24.7,   22.4,   20.9,  61.7,  79.2,   90.1
2014, 06, 28, 24,   40.7,  96.78,     44,   57.3,   44.8,   43.0, 114.3, 140.3,  165.3
2014, 06, 29, 24,   39.7,  96.58,     43,   72.7,   53.8,   50.8, 101.8,  99.9,  106.0
2014, 06, 30, 24,   39.5,  96.57,     45,   79.9,   59.3,   55.9, 133.3, 136.9,  145.1
2014, 07, 01, 24,   36.6,  96.85,     56,   61.0,   46.6,   44.3, 107.3, 119.0,  128.9
2014, 07, 02, 24,   38.0,  96.88,     60,   50.1,   38.1,   35.8,  89.0, 116.9,  140.4
2014, 07, 03, 24,   38.1,  96.57,     57,   55.8,   40.9,   37.0,  75.0,  87.7,  102.3
2014, 07, 04, 24,   36.6,  96.52,     60,   55.4,   40.8,   36.8,  77.1,  92.7,  108.9
2014, 07, 05, 24,   36.8,  96.72,     62,   45.4,   34.3,   31.3,  67.4,  94.4,  118.7
2014, 07, 06, 24,   30.3,  96.95,     70,   29.2,   24.6,   23.2,  74.3, 108.2,  127.7
2014, 07, 07, 24,   33.9,  96.79,     65,   45.7,   36.4,   35.0, 117.6, 166.3,  199.4
2014, 07, 08, 18,   37.9,  96.58,     57,   52.7,   39.4,   37.1,  81.4,  97.9,  119.7
2014, 07, 09, 06,   37.1,  96.49,     66,   65.5,   48.7,   45.5, 128.1, 163.0,  199.9
2014, 07, 10, 24,   37.0,  96.56,     60,   65.5,   48.8,   45.6, 115.9, 141.0,  169.5
2014, 07, 11, 24,   37.9,  96.54,     63,   67.7,   51.7,   49.7, 143.0, 185.8,  222.2
2014, 07, 12, 24,   36.2,  96.54,     71,   61.5,   48.5,   47.4, 176.6, 253.7,  306.1
2014, 07, 13, 24,   33.6,  96.66,     67,   39.9,   32.6,   31.9,  98.7, 141.4,  170.1
2014, 07, 14, 24,   36.4,  96.61,     63,   48.1,   36.8,   35.4,  69.8,  80.0,   92.2
2014, 07, 15, 23,   35.0,  96.52,     65,   49.4,   37.0,   36.2,  83.8, 106.0,  131.0
2014, 07, 16, 24,   33.7,  96.54,     69,   42.1,   31.3,   30.4,  39.4,  39.7,   51.0
2014, 07, 17, 24,   33.6,  96.47,     70,   41.6,   32.0,   31.7,  72.2,  98.7,  125.3
2014, 07, 18, 24,   29.4,  96.42,     59,   38.2,   35.7,   37.3, 241.9, 339.0,  380.0
2014, 07, 19, 24,   31.9,  96.39,     65,   38.8,   33.6,   32.6, 115.5, 160.1,  177.2
2014, 07, 20, 24,   31.0,  96.49,     66,   50.8,   45.0,   44.3, 246.3, 338.3,  370.8
2014, 07, 21, 24,   32.6,  96.48,     62,   45.3,   38.8,   37.8, 157.6, 199.5,  217.1
2014, 07, 22, 24,   32.8,  96.48,     70,   34.0,   27.9,   26.5,  86.4,  76.5,   77.2
2014, 07, 23, 24,   34.2,  96.51,     69,   27.4,   23.0,   22.0,  51.5,  50.7,   57.2
2014, 07, 24, 24,   33.7,  96.74,     65,   43.4,   33.4,   31.6,  66.6,  74.3,   79.0
2014, 07, 25, 24,   34.2,  96.93,     69,   65.5,   47.3,   43.0, 180.9, 204.0,  210.0
2014, 07, 26, 24,   36.1,  97.05,     62,  104.5,   74.2,   68.6, 352.6, 438.9,  483.4
2014, 07, 27, 24,   35.9,  97.02,     70,  139.3,   96.8,   88.0, 454.6, 560.8,  604.8
2014, 07, 28, 22,   33.8,  96.81,     67,  140.6,   98.9,   89.5, 544.6, 686.0,  695.6
2014, 07, 29, 24,   34.3,  96.78,     59,   47.0,   37.7,   36.2,  96.9, 122.0,  138.9
2014, 07, 30, 24,   36.0,  96.76,     63,   51.5,   39.9,   37.4,  72.1,  73.6,   83.8
2014, 07, 31, 24,   36.3,  96.76,     68,   53.9,   41.7,   38.6,  76.0,  71.3,   78.0
2014, 08, 01, 24,   36.8,  96.65,     66,   53.7,   41.8,   39.2,  77.2,  80.4,   93.8
2014, 08, 02, 24,   34.0,  96.56,     68,   39.2,   31.6,   29.6,  70.9,  84.9,   94.7
2014, 08, 03, 24,   31.0,  96.52,     69,   27.3,   22.7,   21.3,  71.1, 113.7,  116.9
2014, 08, 04, 24,   33.2,  96.48,     62,  388.0,  352.3,  192.3, 521.1, 545.6,  443.8
2014, 08, 05, 17,   34.2,  96.46,     60,  611.6,  504.9,  278.4, 800.3, 769.4,  524.7
2014, 08, 07, 09,   33.1,  96.55,     69,  406.5,  289.8,  273.0, 606.6, 582.0,  610.4
2014, 08, 08, 24,   30.6,  96.71,     68,  543.0,  378.3,  293.9, 776.7, 717.1,  656.4
2014, 08, 09, 24,   32.8,  96.89,     64,   37.4,   29.8,   27.8,  59.9,  93.5,  111.7
2014, 08, 10, 24,   34.0,  96.90,     62,   45.4,   35.9,   32.9,  78.8, 118.4,  143.7
2014, 08, 11, 24,   33.7,  96.80,     62,   36.8,   29.8,   28.0,  63.6, 103.5,  131.4
2014, 08, 12, 24,   33.2,  96.74,     65,   40.9,   33.6,   31.8,  81.7, 127.9,  156.5
2014, 08, 13, 24,   33.2,  96.73,     68,   38.8,   31.4,   30.1,  73.2, 110.4,  138.1
2014, 08, 14, 24,   32.8,  96.75,     71,   43.7,   33.9,   31.5,  42.7,  47.4,   59.6
2014, 08, 15, 24,   32.0,  96.94,     72,   45.0,   34.8,   32.2,  45.9,  49.7,   60.6
2014, 08, 16, 24,   32.2,  97.16,     67,   43.3,   34.0,   31.8,  47.3,  53.9,   66.2
2014, 08, 17, 24,   33.6,  97.15,     65,   45.3,   35.1,   32.8,  44.3,  71.5,   88.8
2014, 08, 18, 24,   35.0,  97.32,     62,   49.7,   38.2,   35.9,  59.2,  89.6,  108.9
2014, 08, 19, 24,   35.8,  97.34,     65,   57.2,   43.6,   40.9,  75.2, 107.5,  129.0
2014, 08, 20, 24,   35.4,  97.18,     67,   55.3,   41.3,   38.4,  62.2,  79.5,   89.1
2014, 08, 21, 24,   35.6,  97.04,     65,   38.6,   30.4,   30.0,  51.2,  78.5,   95.5
2014, 08, 22, 24,   36.0,  97.06,     59,   47.7,   37.0,   35.9,  76.9, 103.9,  118.7
2014, 08, 23, 24,   35.8,  97.13,     59,   49.0,   37.6,   36.2,  75.7, 100.2,  114.4
2014, 08, 24, 24,   35.8,  97.10,     58,   44.5,   34.3,   33.1,  54.5,  80.0,   97.7
2014, 08, 25, 24,   36.1,  97.07,     60,   33.9,   25.7,   23.2,  62.0,  95.3,  115.5
2014, 08, 26, 24,   36.2,  97.00,     59,   32.6,   24.3,   21.7,  50.2,  77.7,   94.7
2014, 08, 27, 24,   36.1,  96.94,     61,   34.4,   25.7,   23.2,  61.3,  97.9,  121.7
2014, 08, 28, 24,   36.3,  97.09,     68,   45.8,   34.9,   32.9, 113.1, 175.6,  217.4
2014, 08, 29, 16,   35.8,  97.10,     60,   60.1,   46.4,   44.9, 135.7, 186.0,  220.4
2014, 08, 30, 07,   35.7,  96.87,     68,   74.5,   55.6,   52.3, 109.0, 123.8,  145.8
2014, 08, 31, 24,   35.4,  96.82,     68,   64.6,   47.9,   44.7,  83.8,  86.6,   98.0
2014, 09, 01, 24,   30.5,  96.82,     72,   41.6,   31.6,   29.2,  44.8,  41.5,   44.0
2014, 09, 02, 24,   32.6,  96.87,     69,   50.5,   38.3,   35.6,  58.7,  57.3,   63.5
2014, 09, 03, 24,   32.4,  97.04,     69,   45.0,   34.4,   32.5,  75.4,  90.0,  104.6
2014, 09, 04, 24,   32.0,  97.04,     67,   40.6,   32.5,   31.4,  85.8, 112.3,  129.7
2014, 09, 05, 24,   34.3,  96.95,     65,   48.6,   37.4,   35.5,  70.5,  77.4,   88.7
2014, 09, 06, 24,   30.2,  97.01,     64,   32.8,   28.8,   29.2, 112.0, 173.6,  212.7
2014, 09, 07, 24,   34.4,  97.09,     63,   56.9,   44.4,   42.8, 101.6, 129.7,  153.9
2014, 09, 08, 24,   34.3,  97.11,     68,   60.8,   46.3,   43.9,  98.7, 119.2,  139.7
2014, 09, 09, 24,   35.5,  97.01,     64,   66.4,   51.0,   48.9, 131.8, 173.7,  206.3
2014, 09, 10, 24,   33.1,  97.08,     68,   58.8,   45.6,   43.4, 134.0, 184.3,  222.5
2014, 09, 11, 24,   30.0,  97.26,     64,   43.5,   36.2,   35.3, 149.1, 214.6,  248.8
2014, 09, 12, 24,   28.3,  97.32,     59,   32.4,   28.9,   28.6, 125.4, 177.2,  202.6
2014, 09, 13, 24,   32.0,  97.21,     60,   58.2,   47.0,   45.4, 162.3, 219.8,  253.0
2014, 09, 14, 24,   33.9,  97.20,     62,  111.8,   81.0,   70.6, 208.8, 276.5,  247.5
2014, 09, 15, 24,   33.3,  97.16,     62,  441.1,  292.8,  234.4, 750.2, 782.5,  710.1
2014, 09, 16, 24,   33.6,  97.05,     61,  228.5,  147.9,  113.2, 436.0, 478.7,  491.9
2014, 09, 17, 24,   33.6,  96.99,     60,  115.1,   78.1,   66.9, 293.6, 407.7,  462.1
2014, 09, 18, 24,   33.6,  97.14,     64,   45.3,   33.2,   30.4,  87.5, 167.8,  217.4
2014, 09, 19, 24,   34.4,  97.18,     63,   74.1,   53.3,   47.3, 143.7, 210.0,  248.9
2014, 09, 20, 24,   34.5,  97.10,     67,   92.9,   65.1,   56.4, 275.6, 372.0,  416.9
2014, 09, 21, 24,   33.8,  97.14,     63,   46.8,   34.0,   31.7, 130.6, 226.4,  273.9
2014, 09, 22, 24,   32.9,  97.26,     63,   55.9,   36.9,   34.5, 284.3, 395.4,  415.7
2014, 09, 23, 24,   32.5,  97.27,     66,   64.9,   38.4,   32.1, 216.6, 229.9,  194.5
2014, 09, 24, 24,   32.4,  97.38,     65,   43.8,   29.3,   27.6,  49.3,  78.6,   91.8
2014, 09, 25, 24,   32.7,  97.57,     62,   40.3,   28.7,   27.4,  62.7, 101.5,  124.5
2014, 09, 26, 24,   32.6,  97.63,     61,   31.4,   25.5,   24.6,  69.2, 110.4,  139.6
2014, 09, 27, 24,   32.9,  97.69,     63,   32.7,   26.5,   25.7,  83.8, 132.4,  165.9
2014, 09, 28, 24,   33.7,  97.75,     60,   33.3,   26.4,   25.3,  69.9, 107.3,  134.1
2014, 09, 29, 24,   33.8,  97.70,     59,   41.3,   31.1,   29.4,  70.1, 107.3,  136.5
2014, 09, 30, 24,   35.2,  97.72,     61,   55.1,   40.2,   38.2, 101.0, 160.1,  209.4
2014, 10, 01, 24,   32.5,  97.88,     68,   47.9,   34.1,   31.2,  59.6,  96.1,  127.4
2014, 10, 02, 24,   33.7,  97.78,     58,   47.1,   34.9,   33.5, 100.1, 170.3,  224.2
2014, 10, 03, 24,   35.1,  97.62,     62,   43.3,   32.4,   30.2,  93.2, 152.2,  198.2
2014, 10, 04, 24,   36.1,  97.67,     61,   34.5,   26.5,   24.8, 112.5, 192.2,  248.1
2014, 10, 05, 24,   35.9,  97.82,     61,   37.4,   29.4,   28.0, 139.0, 235.3,  299.4
2014, 10, 06, 24,   35.9,  97.83,     61,   33.3,   25.7,   24.0, 109.0, 187.4,  239.7
2014, 10, 07, 24,   35.6,  97.67,     61,   27.6,   25.0,   24.1, 119.8, 200.0,  248.7
2014, 10, 08, 16,   36.4,  97.70,     61,   24.0,   23.1,   22.6, 132.4, 219.2,  266.2
2014, 10, 21, 00,   30.5,  98.16,     62,   71.7,   66.0,   67.6,   NaN,2028.5,    NaN
2014, 10, 22, 00,   30.8,  98.22,     60,   50.2,   49.4,   51.8,   NaN,2035.6,    NaN
2014, 10, 23, 00,   31.4,  98.06,     59,   53.9,   53.3,   56.7,   NaN,1918.4,    NaN
2014, 10, 24, 00,   30.9,  97.98,     58,   67.3,   53.1,   50.1,   NaN, 972.2,    NaN
2014, 10, 25, 08,   30.2,  98.00,     57,   52.6,   37.3,   31.6, 385.7, 818.6,  461.0
2014, 10, 26, 00,   29.8,  98.24,     58,   54.7,   40.7,   36.0,   NaN,1001.3,    NaN
2014, 10, 27, 00,   30.5,  98.16,     58,   81.9,   60.3,   54.4,   NaN,1585.1,    NaN
2014, 10, 28, 00,   29.8,  98.01,     59,   33.0,   32.7,   33.0,   NaN, 549.7,    NaN
2014, 10, 29, 00,   29.3,  97.98,     60,   38.1,   35.4,   34.7,   NaN, 684.8,    NaN
2014, 10, 30, 00,   30.2,  97.96,     55,   39.8,   39.6,   40.8,   NaN, 547.0,    NaN
2014, 10, 31, 00,   29.9,  98.02,     60,   52.3,   50.1,   51.7,   NaN, 979.2,    NaN
2014, 11, 01, 00,   27.1,  98.10,     59,   80.4,   76.6,   80.8,   NaN,   NaN,    NaN
2014, 11, 02, 00,   25.6,  98.16,     53,   71.9,   69.6,   73.0,   NaN, 770.6,    NaN
2014, 11, 03, 00,   25.6,  98.12,     55,   85.0,   81.4,   86.0,   NaN,   NaN,    NaN
2014, 11, 04, 00,   26.9,  97.97,     56,   55.8,   54.6,   57.1,   NaN, 393.3,    NaN
2014, 11, 05, 00,   28.0,  97.98,     58,   74.2,   71.8,   75.9,   NaN, 407.8,    NaN
2014, 11, 06, 00,   26.2,  97.93,     61,   84.7,   83.3,   88.9,   NaN, 686.1,    NaN
2014, 11, 07, 00,   26.8,  98.03,     59,   88.2,   82.7,   87.7,   NaN, 648.3,    NaN
2014, 11, 08, 00,   28.8,  98.15,     63,  117.2,  100.0,  100.8,   NaN,   NaN,    NaN
2014, 11, 09, 02,   28.9,  98.21,     55,  155.3,  106.9,   90.9,   NaN, 641.0,  229.3
2014, 11, 10, 00,   28.0,  98.09,     59,  996.1,  762.0,  419.1,   NaN,1305.9,    NaN
2014, 11, 11, 00,   27.6,  98.12,     51, 1132.6,  859.5,  432.1,   NaN,   NaN,    NaN
2014, 11, 12, 00,   26.4,  98.25,     47,  685.1,  555.8,  293.8,   NaN,   NaN,    NaN
2014, 11, 13, 00,   25.1,  98.36,     49,  376.8,  222.0,  134.0,   NaN,   NaN,    NaN
2014, 11, 14, 00,   24.4,  98.33,     50,  356.8,  223.1,  142.9,   NaN, 126.3,    NaN
2014, 11, 15, 00,   23.6,  98.24,     43,  302.5,  174.4,  114.7,   NaN, 131.9,    NaN
2014, 11, 16, 00,   23.6,  98.25,     41,  269.2,  161.2,  101.6,   NaN, 905.7,    NaN
2014, 11, 17, 00,   23.5,  98.31,     40,  246.2,  156.4,  101.8,   NaN, 527.1,    NaN
2014, 11, 18, 00,   24.0,  98.45,     44,  232.6,  151.3,  104.8,   NaN, 683.6,    NaN
2014, 11, 19, 00,   23.8,  98.42,     45,  316.7,  226.3,  130.6,   NaN, 805.2,    NaN
2014, 11, 20, 00,   24.1,  98.26,     44,  563.4,  418.6,  220.5,   NaN, 491.7,    NaN
2014, 11, 21, 00,   24.6,  98.16,     47,  510.1,  374.9,  205.3,   NaN,   NaN,    NaN
2014, 11, 22, 00,   24.6,  98.10,     50,  359.4,  254.7,  151.2,   NaN, 424.2,    NaN
2014, 11, 23, 00,   23.8,  98.20,     51,  253.0,  171.8,  111.8,   NaN, 257.2,    NaN
2014, 11, 24, 00,   24.2,  98.30,     45,  225.0,  151.0,  107.6,   NaN, 772.8,    NaN
2014, 11, 25, 00,   22.3,  98.29,     47,  215.9,  147.3,  104.7,   NaN, 663.5,    NaN
2014, 11, 26, 00,   22.8,  97.95,     40,  164.7,  108.3,   78.2,   NaN, 771.4,    NaN
2014, 11, 27, 01,   25.5,  97.99,     35,  135.9,   85.1,   65.6,   NaN, 631.9,   13.8
2014, 11, 28, 00,   26.1,  98.07,     43,  157.9,  109.5,   86.3,   NaN,1142.4,    NaN
2014, 11, 29, 02,   26.5,  98.03,     47,  141.3,   88.7,   69.4,   NaN, 890.4, 1090.3
2014, 11, 30, 03,   27.2,  98.06,     49,  687.4,  596.8,  324.4,   NaN,1419.3, 1003.2
2014, 12, 01, 08,   25.4,  98.08,     35,  655.8,  564.9,  302.7, 482.4,1273.5,  776.6
2014, 12, 02, 08,   23.6,  98.16,     40,   32.8,   32.2,   32.9, 546.5, 884.8,  679.5
2014, 12, 03, 06,   23.4,  98.13,     43,   37.0,   37.0,   38.7, 626.5, 911.2,  718.4
2014, 12, 04, 00,   23.4,  98.25,     48,   40.9,   40.2,   42.1,   NaN,1085.5,    NaN
2014, 12, 05, 00,   21.0,  98.46,     60,   99.7,   94.1,  101.7,   NaN,   NaN,    NaN
2014, 12, 06, 01,   21.4,  98.39,     51,   73.9,   58.3,   56.4,   NaN, 985.2,  523.3
2014, 12, 07, 02,   22.3,  98.26,     45,   94.4,   72.2,   68.2, 102.0,1059.9,  343.4
2014, 12, 08, 03,   22.5,  98.29,     38,   90.2,   69.4,   65.4, 110.5,1066.4,  275.2
2014, 12, 09, 00,   22.7,  98.41,     44,   95.9,   72.7,   72.2,   NaN, 950.3,    NaN
2014, 12, 10, 00,   19.4,  98.45,     50,   70.9,   53.4,   57.0,   NaN, 681.0,    NaN
2014, 12, 11, 00,   20.2,  98.51,     38,   88.6,   64.0,   62.4,   NaN, 474.3,    NaN
2014, 12, 12, 00,   20.0,  98.52,     49,  113.5,   88.0,   89.9,   NaN,1104.2,    NaN
2014, 12, 13, 03,   18.9,  98.56,     59,   78.6,   62.9,   62.5,   NaN, 558.8,  376.9
2014, 12, 14, 00,   19.2,  98.47,     61,   57.6,   48.8,   47.8,   NaN, 995.7,    NaN
2014, 12, 15, 00,   19.7,  98.55,     62,   79.8,   66.2,   65.3,   NaN,1344.5,    NaN
2014, 12, 16, 00,   17.9,  98.81,     58,  113.1,   93.7,   92.4,   NaN,1028.7,    NaN
2014, 12, 17, 00,   17.8,  98.78,     60,   54.8,   49.3,   55.7,   NaN,   NaN,    NaN
2014, 12, 18, 00,   17.3,  98.85,     56,   46.7,   43.2,   51.1,   NaN,   NaN,    NaN
